STARLINK-11393, 62016

Orbit data source: Space-Track

STARLINK-11393, 62016 is a payload satellite owned by SpaceX/Seattle (US) in LEO that was launched on Mon, 18 Nov 2024 UTC via an FALCON 9 launch vehicle from the Air Force Western Test Range (AFWTR). Payload-class satellites include a variety of spacecraft equipped with specific instruments for various scientific and technological missions. These include communications satellites like Starlink; space stations such as the ISS; scientific satellites like the Hubble; Earth observation satellites from companies like Planet Labs, Umbra, and HawkEye 360; GPS; miniature CubeSats for education and research; and military/defense satellites.

Loading next visibility...
Identifier
62016, 2024-213J
Orbit
LEO
Country
Flag of USUS
Related business
Manufacturer
SpaceX/Seattle
Mission
Operational Commercial Communications
Bus & Motor
STARLINK V2MD, Unknown motor
Mass
960 kg wet, ~910 kg dry
Launch date (UTC)
2024-11-18 (11 months ago)
Launch vehicle
FALCON 9
Launch site
Air Force Western Test Range (AFWTR)
Object type
Payload
Rocket body
Debris
Shape & HBR
Box + 2 Pan, 18.1 m
Radar Cross Section
36.964 m², Large (>1 m²)

Expand to show TLE details & history
Last TLE update: 11 hours ago

TLE from 11 hours ago
0 STARLINK-11393
1 62016U 24213J   25293.58277599  .00138050  00000-0  11225-2 0  9990
2 62016  53.1568  11.6573 0001673  97.6568 262.4640 15.69772953 52911
Epoch: 2025-10-20T13:59Z
TLE epoch observation values (Epoch: 2025-10-20T13:59:11.845Z)
Latitude
-0.00002°
Longitude
132.57492°
Altitude
360.609 km
Speed
7.694 km/s
True Right ascension
00h 46m 37s
True Declination
0° 00' 00"
Sunlit
Object was in full shadow at epoch
Visualization orbit readout
Latitude
Unknown
Longitude
Unknown
Altitude
Unknown
Speed
Unknown
Apparent Right ascension
Unknown
Apparent Declination
Unknown
Sunlit
N/A
Visualization observer readout
Local Sidereal Time
20:20:05
Azimuth
Unknown
Elevation
Unknown
Doppler factor
Unknown
Orbital elements
Apogee altitude
360.935 km
Perigee altitude
358.681 km
Semi-major axis
6,737.945 km
Eccentricity
0.00017
Inclination
53.1568°
RAAN
11.6573°
Arg. of periapsis
97.6568°
True anomaly
262.44499°
Mean anomaly
262.464°
Eccentric anomaly
262.4545°
Mean motion
3.92421 °/min
Orbital period
91.74 mins
BSTAR
0.0011225
Loading maneuver chart data...
Computing Atmospheric mass density...
Loading historical data...
Loading historical data...
Loading historical data...
Loading historical data...
Loading historical data...
Loading historical data...
Loading historical data...

Documentation

Showing up to 5 results
|